Weather History for Tunica, MS

Change the Weather History Date:

Saturday, December 14, 2013

  Actual Average (KMEM) Record (KMEM)
Temperature  
Mean Temperature 38 °F 44 °F  
Max Temperature 42 °F 52 °F 77 °F (1984)
Min Temperature 35 °F 35 °F 9 °F (1917)
Degree Days  
Heating Degree Days 26 21  
Month to date heating degree days 277  
Since 1 July heating degree days 776  
Cooling Degree Days 0 0  
Month to date cooling degree days 0  
Year to date cooling degree days 2256  
Moisture  
Dew Point 38 °F    
Average Humidity 88    
Maximum Humidity 100    
Minimum Humidity 76    
Precipitation  
Precipitation 0.39 in 0.20 in 1.34 in (1951)
Month to date precipitation 2.77  
Year to date precipitation 50.71  
Snow  
Snow 0.00 in 0.00 in 3.60 in (1901)
Month to date snowfall 0.0  
Since 1 July snowfall T  
Snow Depth -    
Sea Level Pressure  
Sea Level Pressure 29.97 in    
Wind  
Wind Speed 10 mph (WNW)    
Max Wind Speed 20 mph    
Max Gust Speed 25 mph    
Visibility 8 miles    
Events Rain    
T = Trace of Precipitation, MM = Missing Value Source: NWS Daily Summary

Daily Weather History Graph

Daily Weather History Graph

Search for Another Location

Airport:

Trip Planner

Search our weather history database for the weather conditions in past years. The results will help you decide how hot, cold, wet, or windy it might be!

Date:

Astronomy

Dec. 14, 2013 Rise Set
Actual Time 7:00 AM CST 4:51 PM CST
Civil Twilight 6:32 AM CST 5:19 PM CST
Nautical Twilight 6:01 AM CST 5:51 PM CST
Astronomical Twilight 5:30 AM CST 6:22 PM CST
Moon 3:09 PM CST (12/14) 4:25 AM CST (12/14)
Length of Visible Light 10h 47m
Length of Day
9h 51m
Waxing Gibbous, 94% of the Moon is Illuminated
Dec 14
Waxing Gibbous
Dec 17
Full
Dec 25
Last Quarter
Jan 1
New
Jan 7
First Quarter

Hourly Weather History & Observations

Time (CST) Temp. Windchill Dew Point Humidity Pressure Visibility Wind Dir Wind Speed Gust Speed Precip Events Conditions
12:15 AM 41.0 °F 32.8 °F 37.4 °F 87% 29.89 in 4.0 mi SE 16.1 mph - 0.06 in Rain Rain
12:35 AM 41.0 °F 31.9 °F 37.4 °F 87% 29.86 in 4.0 mi SE 19.6 mph 24.2 mph 0.14 in Rain Rain
12:55 AM 41.0 °F - 39.2 °F 93% 29.87 in 4.0 mi Calm Calm - 0.22 in Rain Heavy Rain
1:15 AM 41.0 °F 33.9 °F 39.2 °F 93% 29.85 in 5.0 mi SE 12.7 mph - 0.06 in Rain Rain
1:35 AM 41.0 °F 39.0 °F 41.0 °F 100% 29.86 in 7.0 mi South 3.5 mph - 0.08 in Rain Light Rain
1:55 AM 41.0 °F 35.2 °F 41.0 °F 100% 29.90 in 4.0 mi WSW 9.2 mph - 0.13 in Rain Rain
2:15 AM 41.0 °F 39.0 °F 41.0 °F 100% 29.87 in 10.0 mi South 3.5 mph - 0.01 in Rain Light Rain
2:35 AM 41.0 °F 36.4 °F 41.0 °F 100% 29.85 in 10.0 mi SE 6.9 mph - 0.01 in Rain Rain
2:55 AM 41.0 °F 37.1 °F 41.0 °F 100% 29.85 in 5.0 mi SE 5.8 mph - 0.02 in   Drizzle
3:15 AM 42.8 °F 38.6 °F 41.0 °F 93% 29.85 in 3.0 mi SE 6.9 mph - N/A Rain Rain
3:35 AM 42.8 °F 38.0 °F 41.0 °F 93% 29.84 in 3.0 mi SSE 8.1 mph - 0.02 in   Drizzle
3:55 AM 42.8 °F 38.0 °F 41.0 °F 93% 29.83 in 4.0 mi SE 8.1 mph - 0.02 in Rain Light Rain
4:15 AM 42.8 °F 40.1 °F 42.8 °F 100% 29.83 in 5.0 mi SSE 4.6 mph - N/A   Overcast
4:35 AM 42.8 °F 39.3 °F 42.8 °F 100% 29.82 in 7.0 mi SSE 5.8 mph - N/A   Overcast
4:55 AM 42.8 °F - 42.8 °F 100% 29.82 in 5.0 mi Calm Calm - N/A   Overcast
5:15 AM 42.8 °F 40.1 °F 42.8 °F 100% 29.83 in 3.0 mi South 4.6 mph - N/A   Overcast
5:35 AM 42.8 °F 40.1 °F 42.8 °F 100% 29.83 in 4.0 mi South 4.6 mph - N/A   Overcast
5:55 AM 42.8 °F 40.1 °F 42.8 °F 100% 29.84 in 4.0 mi SW 4.6 mph - N/A   Overcast
6:15 AM 42.8 °F 40.1 °F 42.8 °F 100% 29.86 in 4.0 mi SW 4.6 mph - N/A   Overcast
6:35 AM 42.8 °F 41.1 °F 42.8 °F 100% 29.86 in 4.0 mi SW 3.5 mph - N/A   Overcast
6:55 AM 42.8 °F 41.1 °F 42.8 °F 100% 29.87 in 2.5 mi West 3.5 mph - N/A   Overcast
7:15 AM 42.8 °F 41.1 °F 42.8 °F 100% 29.87 in 2.0 mi West 3.5 mph - N/A   Overcast
7:35 AM 42.8 °F 38.6 °F 42.8 °F 100% 29.87 in 2.5 mi West 6.9 mph - N/A   Overcast
7:55 AM 42.8 °F 37.5 °F 42.8 °F 100% 29.88 in 3.0 mi West 9.2 mph - N/A   Overcast
8:15 AM 42.8 °F 38.0 °F 42.8 °F 100% 29.89 in 5.0 mi West 8.1 mph - N/A   Overcast
8:35 AM 42.8 °F 37.0 °F 41.0 °F 93% 29.90 in 10.0 mi WNW 10.4 mph - N/A   Overcast
8:55 AM 42.8 °F 38.0 °F 41.0 °F 93% 29.91 in 10.0 mi West 8.1 mph - N/A   Overcast
9:15 AM 41.0 °F 35.2 °F 41.0 °F 100% 29.93 in 10.0 mi WNW 9.2 mph 16.1 mph N/A   Overcast
9:35 AM 42.8 °F 37.5 °F 41.0 °F 93% 29.93 in 10.0 mi WNW 9.2 mph - N/A   Overcast
9:55 AM 42.8 °F 37.0 °F 39.2 °F 87% 29.94 in 10.0 mi WNW 10.4 mph - N/A   Overcast
10:15 AM 41.0 °F 35.2 °F 39.2 °F 93% 29.95 in 10.0 mi WNW 9.2 mph - N/A   Overcast
10:35 AM 42.8 °F 37.5 °F 39.2 °F 87% 29.95 in 10.0 mi WNW 9.2 mph - N/A   Overcast
10:55 AM 42.8 °F 37.5 °F 41.0 °F 93% 29.94 in 10.0 mi WNW 9.2 mph - N/A   Overcast
11:15 AM 42.8 °F 36.6 °F 39.2 °F 87% 29.95 in 10.0 mi WNW 11.5 mph - N/A   Overcast
11:35 AM 42.8 °F 35.4 °F 37.4 °F 81% 29.94 in 10.0 mi NW 15.0 mph - N/A   Overcast
11:55 AM 42.8 °F 37.0 °F 39.2 °F 87% 29.94 in 10.0 mi WNW 10.4 mph - N/A   Overcast
12:15 PM 42.8 °F 35.8 °F 37.4 °F 81% 29.94 in 10.0 mi NW 13.8 mph - N/A   Overcast
12:35 PM 42.8 °F 37.0 °F 37.4 °F 81% 29.93 in 10.0 mi NW 10.4 mph - N/A   Overcast
12:55 PM 42.8 °F 36.2 °F 37.4 °F 81% 29.93 in 10.0 mi WNW 12.7 mph - N/A   Overcast
1:15 PM 42.8 °F 35.8 °F 37.4 °F 81% 29.94 in 10.0 mi NW 13.8 mph - N/A   Overcast
1:35 PM 42.8 °F 36.2 °F 37.4 °F 81% 29.94 in 10.0 mi NW 12.7 mph - N/A   Overcast
1:55 PM 42.8 °F 35.4 °F 37.4 °F 81% 29.95 in 10.0 mi NW 15.0 mph - N/A   Overcast
2:15 PM 42.8 °F 35.1 °F 37.4 °F 81% 29.95 in 10.0 mi NW 16.1 mph 19.6 mph N/A   Overcast
2:35 PM 42.8 °F 35.1 °F 35.6 °F 76% 29.96 in 10.0 mi NW 16.1 mph - N/A   Overcast
2:55 PM 41.0 °F 32.8 °F 35.6 °F 81% 29.97 in 10.0 mi NW 16.1 mph 20.7 mph N/A   Overcast
3:15 PM 41.0 °F 33.1 °F 35.6 °F 81% 29.98 in 10.0 mi NNW 15.0 mph - N/A   Overcast
3:35 PM 41.0 °F 34.3 °F 35.6 °F 81% 29.99 in 10.0 mi NW 11.5 mph - N/A   Overcast
3:55 PM 41.0 °F 33.9 °F 35.6 °F 81% 30.01 in 10.0 mi NW 12.7 mph 18.4 mph N/A   Overcast
4:15 PM 41.0 °F 33.1 °F 33.8 °F 76% 30.02 in 10.0 mi NW 15.0 mph 25.3 mph N/A   Overcast
4:35 PM 41.0 °F 32.5 °F 33.8 °F 76% 30.03 in 10.0 mi NW 17.3 mph 21.9 mph N/A   Overcast
4:55 PM 41.0 °F 33.5 °F 33.8 °F 76% 30.04 in 10.0 mi NW 13.8 mph - N/A   Overcast
5:15 PM 41.0 °F 33.5 °F 33.8 °F 76% 30.05 in 10.0 mi NW 13.8 mph - N/A   Overcast
5:35 PM 41.0 °F 34.3 °F 33.8 °F 76% 30.06 in 10.0 mi NW 11.5 mph 18.4 mph N/A   Overcast
5:55 PM 41.0 °F 34.3 °F 33.8 °F 76% 30.07 in 10.0 mi NW 11.5 mph - N/A   Overcast
6:15 PM 39.2 °F 32.5 °F 33.8 °F 81% 30.07 in 10.0 mi NW 10.4 mph - N/A   Overcast
6:35 PM 39.2 °F 31.6 °F 33.8 °F 81% 30.08 in 10.0 mi NW 12.7 mph - N/A   Overcast
6:55 PM 39.2 °F 32.0 °F 33.8 °F 81% 30.08 in 10.0 mi NW 11.5 mph - N/A   Overcast
7:15 PM 39.2 °F 31.6 °F 33.8 °F 81% 30.09 in 10.0 mi NW 12.7 mph 17.3 mph N/A   Overcast
7:35 PM 39.2 °F 32.5 °F 33.8 °F 81% 30.09 in 10.0 mi NW 10.4 mph - N/A   Overcast
7:55 PM 39.2 °F 32.0 °F 33.8 °F 81% 30.11 in 10.0 mi NW 11.5 mph - N/A   Overcast
8:15 PM 37.4 °F 30.3 °F 33.8 °F 87% 30.12 in 10.0 mi NW 10.4 mph - N/A   Overcast
8:35 PM 37.4 °F 28.2 °F 33.8 °F 87% 30.12 in 10.0 mi NNW 16.1 mph 23.0 mph N/A   Overcast
8:55 PM 37.4 °F 27.2 °F 32.0 °F 81% 30.13 in 10.0 mi NNW 19.6 mph 25.3 mph N/A   Mostly Cloudy
9:15 PM 37.4 °F 27.5 °F 32.0 °F 81% 30.14 in 10.0 mi NNW 18.4 mph 24.2 mph N/A   Overcast
9:35 PM 37.4 °F 29.3 °F 32.0 °F 81% 30.14 in 10.0 mi NNW 12.7 mph - N/A   Overcast
9:55 PM 37.4 °F 28.2 °F 32.0 °F 81% 30.15 in 10.0 mi NNW 16.1 mph - N/A   Overcast
10:15 PM 35.6 °F 25.9 °F 32.0 °F 87% 30.16 in 10.0 mi NNW 16.1 mph - N/A   Overcast
10:35 PM 35.6 °F 26.2 °F 32.0 °F 87% 30.17 in 10.0 mi NNW 15.0 mph 20.7 mph N/A   Overcast
10:55 PM 35.6 °F 26.2 °F 32.0 °F 87% 30.17 in 10.0 mi NNW 15.0 mph - N/A   Overcast
11:15 PM 35.6 °F 26.2 °F 32.0 °F 87% 30.18 in 7.0 mi NNW 15.0 mph - N/A   Mostly Cloudy
11:35 PM 35.6 °F 26.2 °F 32.0 °F 87% 30.18 in 7.0 mi NNW 15.0 mph - N/A   Mostly Cloudy
11:55 PM 35.6 °F 25.2 °F 32.0 °F 87% 30.19 in 7.0 mi NNW 18.4 mph 23.0 mph N/A   Mostly Cloudy